Location: Helsinki
(60.1699°N, 24.9384°E)
Time: 20:57:48
(UTC+02:00)

Transit 2A Rocket - Pass Details

Date: 21 September 2023
Orbit: 593 x 903 km, 66.7° (Epoch: 29 November)

Event Time Altitude Azimuth Distance (km) Brightness Sun altitude
Rises 16:40:21 0° 190° (S) 3,329 9.0 18.5°
Reaches altitude 10° 16:43:07 10° 180° (S) 2,350 8.1 18.3°
Maximum altitude 16:47:43 30° 121° (ESE) 1,323 6.2 17.8°
Drops below altitude 10° 16:52:01 10° 61° (ENE) 2,181 6.8 17.3°
Sets 16:54:29 0° 51° (NE) 3,051 7.5 17.1°
